Find Starlink 32758

NORAD ID: 62744 Int'l Des: 2025-014 Owner: SPXS Country: US Constellation: starlink operational
LEOCIRCULAR

当前视图

正在加载3D地球...

About Starlink 32758

Starlink 32758 (NORAD 62744) is a starlink constellation satellite (v2 mini) launched Jan 21, 2025 by SPXS of US. It operates in LEO, CIRCULAR orbit with a mass of 730.00 kg.

即将过境

Passes for default location (London). Set your location on the main map for personalized predictions.

高度历史

Loading altitude history...

两行轨道根数

1 62744U 25014K 26262.92351382 .00016639 00000-0 61263-3 0 9992
2 62744 43.0033 140.8619 0002080 82.6385 277.4703 15.27588797 92920
Epoch: Sep 19, 2026 • Age: 34 hours

当前状态

高度 490.1 km
远地点 / 近地点 N/A
速度 7.62 km/s
星下点 -25.58°S, 137.73°W
发射日期 Jan 21, 2025
运行时间 1.6 years
类型 internet

技术详情

分类 Payload
质量 730.00 kg
干质量 700.00 kg
长度 0.30 m
跨度 29.00 m
形状 ? Box + pan
制造商 SPXS
平台类型 Starlink V2M
阶段状态 In Orbit
所有者/国家 SPXS/US

Most Searched